Weather History for Whiteman AFB, MO

Change the Weather History Date:

Tuesday, September 18, 2012

  Actual Average Record
Temperature  
Mean Temperature 58 °F -  
Max Temperature 68 °F 76 °F 93 °F (2002)
Min Temperature 47 °F 55 °F 47 °F (2012)
Degree Days  
Heating Degree Days 8    
Growing Degree Days 8 (Base 50)    
Moisture  
Dew Point 43 °F    
Average Humidity 68    
Maximum Humidity 100    
Minimum Humidity 29    
Precipitation  
Precipitation 0.00 in - - ()
Sea Level Pressure  
Sea Level Pressure 30.05 in    
Wind  
Wind Speed 6 mph (NW)    
Max Wind Speed 16 mph    
Max Gust Speed 18 mph    
Visibility 10 miles    
Events      
Averages and records for this station are not official NWS values.
T = Trace of Precipitation, MM = Missing Value Source: NWS Daily Summary

Daily Weather History Graph

Daily Weather History Graph

Search for Another Location

Airport:

Trip Planner

Search our weather history database for the weather conditions in past years. The results will help you decide how hot, cold, wet, or windy it might be!

Date:

Astronomy

Sep. 18, 2012 Rise Set
Actual Time 6:58 AM CDT 7:16 PM CDT
Civil Twilight 6:32 AM CDT 7:43 PM CDT
Nautical Twilight 6:00 AM CDT 8:14 PM CDT
Astronomical Twilight 5:29 AM CDT 8:46 PM CDT
Moon 9:56 AM CDT (9/18) 8:43 PM CDT (9/18)
Length of Visible Light 13h 11m
Length of Day
12h 18m
Waxing Crescent, 9% of the Moon is Illuminated
Sep 18
Waxing Crescent
Sep 22
First Quarter
Sep 29
Full
Oct 8
Last Quarter
Oct 15
New

Hourly Weather History & Observations

Time (CDT) Temp. Dew Point Humidity Pressure Visibility Wind Dir Wind Speed Gust Speed Precip Events Conditions
12:55 AM 52.9 °F 50.7 °F 92% 30.00 in 10.0 mi North 6.9 mph - N/A   Clear
1:55 AM 51.1 °F 50.7 °F 99% 30.00 in 10.0 mi NNW 3.5 mph - N/A   Clear
2:55 AM 50.2 °F 50.0 °F 99% 30.01 in 10.0 mi Calm Calm - N/A   Clear
3:55 AM 48.6 °F 48.6 °F 100% 30.00 in 10.0 mi Calm Calm - N/A   Clear
4:55 AM 49.3 °F 49.3 °F 100% 30.01 in 10.0 mi West 3.5 mph - N/A   Clear
5:55 AM 48.6 °F 48.6 °F 100% 30.03 in 10.0 mi NW 4.6 mph - N/A   Clear
6:55 AM 47.7 °F 47.5 °F 99% 30.04 in 10.0 mi West 3.5 mph - N/A   Clear
7:55 AM 48.9 °F 48.6 °F 99% 30.05 in 10.0 mi NW 6.9 mph - N/A   Clear
8:55 AM 50.7 °F 48.2 °F 91% 30.07 in 10.0 mi NNW 8.1 mph - N/A   Clear
9:55 AM - - N/A% 30.08 in 10.0 mi NNW 9.2 mph - N/A   Clear
10:55 AM 59.9 °F 41.9 °F 51% 30.10 in 10.0 mi North 16.1 mph - N/A   Clear
11:55 AM 62.4 °F 38.8 °F 42% 30.10 in 10.0 mi NW 15.0 mph - N/A   Clear
12:55 PM 64.6 °F 35.1 °F 33% 30.10 in 10.0 mi North 12.7 mph 18.4 mph N/A   Clear
1:55 PM 66.2 °F 34.0 °F 30% 30.09 in 10.0 mi NNW 11.5 mph 17.3 mph N/A   Clear
2:55 PM 67.3 °F 33.8 °F 29% 30.07 in 10.0 mi NW 11.5 mph - N/A   Clear
3:55 PM 67.5 °F 33.6 °F 29% 30.06 in 10.0 mi NW 11.5 mph - N/A   Clear
4:55 PM 68.0 °F 34.2 °F 29% 30.05 in 10.0 mi West 9.2 mph - N/A   Clear
5:55 PM 67.3 °F 35.8 °F 31% 30.05 in 10.0 mi West 6.9 mph - N/A   Clear
6:55 PM 64.2 °F 39.7 °F 41% 30.06 in 9.0 mi WNW 4.6 mph - N/A   Clear
7:55 PM 60.3 °F 40.8 °F 49% 30.06 in 10.0 mi SSW 3.5 mph - N/A   Clear
8:55 PM 53.2 °F 43.9 °F 71% 30.07 in 10.0 mi SSW 3.5 mph - N/A   Clear
9:55 PM 50.4 °F 45.7 °F 84% 30.07 in 10.0 mi Calm Calm - N/A   Clear
10:55 PM 50.4 °F 45.0 °F 82% 30.07 in 10.0 mi Calm Calm - N/A   Clear
11:55 PM 49.3 °F 46.4 °F 90% 30.07 in 10.0 mi Calm Calm - N/A   Clear